Flag for New Zealand Weather past 2 weeks in Christchurch, New Zealand

Now
63 °F

Overcast.


Feels Like: 63 °F
Forecast: 56 / 69 °F
Wind: 7 mph from Northeast

Location: Christchurch Airport

Current Time: Dec 23, 2014 at 9:51:43 AM

Latest Report: Dec 23, 2014 at 9:30 AM


Visibility: N/A

Pressure: 30.30 "Hg

Humidity: 73%

Dew point: 54 °F

Location of ChristchurchLocation

Historic Weather in Christchurch — Graph

°F

Christchurch temperature yesterday

Maximum temperature yesterday: 66 °F (at 12:30 PM)
Minimum temperature yesterday: 50 °F (at 6:00 AM)
Average temperature yesterday: 59 °F

Past Weeks' High & Low Weather Summary

 TemperatureHumidityPressure
High82 °F (Dec 20, 6:30 PM)100% (Dec 10, 6:00 AM)30.30 "Hg (Dec 10, 6:00 AM)
Low41 °F (Dec 14, 5:00 AM)34% (Dec 9, 2:00 PM)29.56 "Hg (Dec 21, 2:30 AM)
Average59 °F76%29.91 "Hg
* Reported Dec 8 8:00 AM — Dec 23 8:30 AM, Christchurch, Weather by CustomWeather, © 2014

Note: Actual official high and low records may vary slightly from our data, if they occured in-between our weather recording intervals... More about our weather records

Advertising

Christchurch weather history for previous 24 hours

 ConditionsComfort  
Time TempWeatherWind HumidityBarometerVisibility
8:30 AM
Dec 23
61 °FOvercast.3 mph83%30.30 "HgN/A
8:00 AM61 °FOvercast.3 mph83%30.27 "HgN/A
7:30 AM59 °FOvercast.7 mph88%30.27 "HgN/A
7:00 AM59 °FOvercast.7 mph88%30.27 "HgN/A
6:30 AM59 °FOvercast.3 mph88%30.27 "HgN/A
6:00 AM59 °FOvercast.No wind82%30.24 "HgN/A
5:30 AM59 °FOvercast.No wind88%30.24 "HgN/A
5:00 AM59 °FOvercast.No wind88%30.24 "HgN/A
4:30 AM59 °FOvercast.3 mph88%30.21 "HgN/A
4:00 AM59 °FOvercast.2 mph88%30.21 "HgN/A
3:30 AM59 °FOvercast.2 mph88%30.21 "HgN/A
3:00 AM59 °FOvercast.3 mph88%30.21 "HgN/A
2:30 AM59 °FOvercast.5 mph88%30.21 "HgN/A
2:00 AM59 °FOvercast.7 mph88%30.21 "HgN/A
1:30 AM59 °FOvercast.7 mph88%30.21 "HgN/A
1:00 AM59 °FOvercast.7 mph88%30.21 "HgN/A
12:30 AM59 °FOvercast.8 mph88%30.18 "HgN/A
12:00 AM59 °FOvercast.10 mph88%30.18 "HgN/A
11:30 PM
Dec 22
59 °FOvercast.13 mph88%30.18 "HgN/A
11:00 PM59 °FOvercast.12 mph88%30.18 "HgN/A
10:30 PM59 °FOvercast.10 mph88%30.15 "HgN/A
10:00 PM59 °FOvercast.10 mph88%30.15 "HgN/A
9:30 PM59 °FOvercast.10 mph88%30.12 "HgN/A
9:00 PM59 °FPartly sunny.10 mph88%30.12 "HgN/A
8:30 PM61 °FPartly sunny.12 mph83%30.09 "HgN/A
8:00 PM61 °FPassing clouds.13 mph83%30.09 "HgN/A
7:30 PM61 °FScattered clouds.13 mph83%30.09 "HgN/A
7:00 PM63 °FScattered clouds.13 mph77%30.07 "HgN/A
6:30 PM64 °FMild.15 mph73%30.07 "HgN/A
6:00 PM64 °FMild.16 mph68%30.07 "HgN/A
5:30 PM64 °FMild.15 mph68%30.07 "HgN/A
4:30 PM64 °FMild.16 mph68%30.07 "HgN/A
3:30 PM66 °FMild.16 mph64%30.04 "HgN/A
3:00 PM66 °FMild.17 mph64%30.04 "HgN/A
2:30 PM66 °FMild.16 mph64%30.04 "HgN/A
2:00 PM66 °FScattered clouds.15 mph68%30.04 "HgN/A
1:30 PM66 °FPassing clouds.16 mph68%30.04 "HgN/A
1:00 PM64 °FPassing clouds.16 mph68%30.04 "HgN/A
12:30 PM66 °FPassing clouds.14 mph68%30.04 "HgN/A
12:00 PM63 °FPartly sunny.14 mph73%30.04 "HgN/A
11:30 AM63 °FPartly sunny.12 mph73%30.04 "HgN/A
10:30 AM61 °FPartly sunny.12 mph72%30.04 "HgN/A
10:00 AM59 °FPartly sunny.13 mph82%30.04 "HgN/A
9:30 AM59 °FOvercast.10 mph82%30.04 "HgN/A
9:00 AM57 °FPartly sunny.7 mph88%30.04 "HgN/A
Weather by CustomWeather, © 2014

See weather overviewHow to use our weather pages